Regional Weather Roundup
Issued by NWS Bismarck, ND

Home | Current Version | Previous Version | Text Only | Print | Product List | Glossary On
Versions: 1 2 3 4 5 6 7 8 9 10 11 12 13 14 15 16 17 18 19 20 21 22 23 24 25 26 27 28 29 30 31 32 33 34 35 36 37 38 39 40 41 42 43 44 45 46 47 48 49 50
000
ASUS43 KBIS 170802
RWRBIS

NWR BROADCAST TEXT
NATIONAL WEATHER SERVICE BISMARCK ND
200 AM CST SUN DEC 17 2017

NOTE: "FAIR" INDICATES FEW OR NO CLOUDS BELOW 12,000 FEET WITH NO
SIGNIFICANT WEATHER AND/OR OBSTRUCTIONS TO VISIBILITY.


CITY           SKY/WX    TMP DP  RH WIND       PRES   REMARKS
WILLISTON      FAIR      18  14  84 SW5       30.03F WCI  11
MINOT          FAIR      24  17  74 SW10      30.00S WCI  14
MINOT AFB      CLEAR     22  16  79 W10       29.99S WCI  11
BISMARCK       FAIR      24  20  84 SW5       30.06F WCI  18
DICKINSON      FAIR      23  17  78 W6        30.01F WCI  16
GARRISON         N/A     25  20  81 W10       30.01F WCI  15
HETTINGER ARPT MOCLDY    21  17  84 CALM      30.05F
JAMESTOWN      FAIR      26  25  96 W3        30.03F
CARRINGTON     FAIR      25  23  93 W9        30.04S WCI  15
LINTON           N/A     27  23  86 SW7       30.07F WCI  19
OAKES          FOG       27  28 100 CALM      30.05F VSB 1/4
TIOGA          FAIR      18  18 100 W7        30.02S WCI   8
$$

CITY           SKY/WX    TMP DP  RH WIND       PRES   REMARKS
GRAND FORKS    CLOUDY    17  15  92 SW8       30.03F WCI   7
GRAND FORKS AF CLOUDY    21  19  91 SW9       30.02F WCI  11
DEVILS LAKE    CLOUDY    20  17  88 SW7       30.01S WCI  11
FARGO          MOCLDY    25  25 100 S5        30.07S FOG     WCI  19
CANDO          FAIR      14  14 100 W6        30.01S WCI   5
CAVALIER       FAIR       9   9 100 CALM      29.99S
GWINNER          N/A     30  30 100 W6        30.05F
ROLLA          FAIR      12  12 100 SW7       29.96S WCI   2
WALHALLA       FAIR      23  21  93 W7        29.97F WCI  15
$$

CITY           SKY/WX    TMP DP  RH WIND       PRES   REMARKS
ABERDEEN       PTCLDY    25  25 100 CALM      30.06F
MOBRIDGE       CLOUDY    24  21  88 CALM      30.03F
BUFFALO          N/A     26  22  84 W5        29.97F
RAPID CITY     LGT SNOW  29  27  92 NW7       30.04F FOG
GLASGOW        CLOUDY    19  15  84 S5        30.00F WCI  12
SIDNEY         CLEAR     19  15  84 SW6       30.04F WCI  11
WOLF POINT     CLEAR     13   8  81 W3        30.04F
GLENDIVE       PTCLDY    20  16  84 S5        30.04F WCI  13
MILES CITY     PTCLDY    21  19  92 S6        30.04F WCI  13
BAKER          PTCLDY    23  21  92 CALM      30.03F
$$

CITY           SKY/WX    TMP DP  RH WIND       PRES   REMARKS
BILLINGS       FOG       25  25 100 SW9       30.02F VSB 1   WCI  15
GREAT FALLS    CLEAR     23  13  65 SW16      29.93F WCI  10
$$





USA.gov is the U.S. government's official web portal to all federal, state and local government web resources and services.